Flag for Germany Weather past 2 weeks in Marburg, Hesse, Germany

Now
68 °F

Partly sunny.


Feels Like: 68 °F
Forecast: 53 / 82 °F
Wind: 2 mph from Northeast

Location: Giessen

Current Time: Aug 1, 2014 at 10:25:56 AM

Latest Report: Aug 1, 2014 at 10:00 AM


Visibility: 16 mi

Pressure: 29.90 "Hg

Humidity: 70%

Dew point: 58 °F

Location of MarburgLocation

Historic Weather in Marburg — Graph

°F

Marburg temperature yesterday

Maximum temperature yesterday: 78 °F (at 7:00 PM)
Minimum temperature yesterday: 58 °F (at 7:00 AM)
Average temperature yesterday: 68 °F

Past Weeks' High & Low Weather Summary

 TemperatureHumidityPressure
High89 °F (Jul 19, 6:00 PM)98% (Jul 26, 7:00 AM)30.18 "Hg (Jul 26, 7:00 AM)
Low54 °F (Aug 1, 6:00 AM)31% (Jul 18, 7:00 PM)29.72 "Hg (Jul 29, 5:00 PM)
Average70 °F73%29.92 "Hg
* Reported Jul 17 9:00 AM — Aug 1 9:00 AM, Marburg, Weather by CustomWeather, © 2014

Note: Actual official high and low records may vary slightly from our data, if they occured in-between our weather recording intervals... More about our weather records

Advertising

Marburg weather history for previous 24 hours

 ConditionsComfort  
Time TempWeatherWind HumidityBarometerVisibility
9:00 AM
Aug 1
63 °FScattered clouds.2 mph81%29.92 "Hg12 mi
8:00 AM59 °FPassing clouds.1 mph87%29.93 "Hg8 mi
7:00 AM55 °FFog.1 mph96%29.93 "Hg4 mi
6:00 AM54 °FOvercast.1 mph95%29.93 "Hg5 mi
5:00 AM54 °FFog.No wind94%29.94 "Hg4 mi
4:00 AM55 °FOvercast.1 mph93%29.95 "Hg6 mi
3:00 AM56 °FOvercast.No wind92%29.95 "Hg12 mi
2:00 AM57 °FOvercast.2 mph92%29.95 "Hg7 mi
1:00 AM58 °FOvercast.1 mph86%29.96 "Hg13 mi
12:00 AM60 °FOvercast.2 mph84%29.96 "Hg12 mi
11:00 PM
Jul 31
60 °FOvercast.1 mph85%29.96 "Hg14 mi
10:00 PM63 °FClear.1 mph79%29.94 "Hg10 mi
9:00 PM71 °FSunny.1 mph55%29.92 "Hg17 mi
8:00 PM77 °FSunny.1 mph34%29.91 "Hg34 mi
7:00 PM78 °FSunny.2 mph31%29.91 "Hg34 mi
6:00 PM78 °FSunny.2 mph40%29.93 "Hg34 mi
5:00 PM78 °FSunny.1 mph38%29.94 "Hg31 mi
4:00 PM76 °FSunny.3 mph41%29.95 "Hg19 mi
3:00 PM75 °FPassing clouds.5 mph49%29.96 "Hg16 mi
2:00 PM74 °FSunny.N/A56%29.98 "HgN/A
1:00 PM72 °FScattered clouds.N/A57%29.99 "HgN/A
12:00 PMN/AN/AN/AN/AN/A
11:00 AM69 °FOvercast.1 mph67%30.00 "Hg14 mi
10:00 AM67 °FOvercast.1 mph70%30.01 "Hg14 mi
Weather by CustomWeather, © 2014

See weather overviewHow to use our weather pages